Weather History for Soldotna, AK

Change the Weather History Date:

Saturday, January 5, 2013

  Actual Average Record
Temperature  
Mean Temperature 28 °F -  
Max Temperature 33 °F 17 °F 43 °F (1953)
Min Temperature 23 °F 1 °F -45 °F (1975)
Degree Days  
Heating Degree Days 37    
Moisture  
Dew Point 25 °F    
Average Humidity 82    
Maximum Humidity 93    
Minimum Humidity 70    
Precipitation  
Precipitation 0.00 in - - ()
Sea Level Pressure  
Sea Level Pressure 29.39 in    
Wind  
Wind Speed 4 mph (ENE)    
Max Wind Speed 13 mph    
Max Gust Speed 21 mph    
Visibility 10 miles    
Events      
Averages and records for this station are not official NWS values.
T = Trace of Precipitation, MM = Missing Value Source: NWS Daily Summary

Daily Weather History Graph

Daily Weather History Graph

Search for Another Location

Airport:

Trip Planner

Search our weather history database for the weather conditions in past years. The results will help you decide how hot, cold, wet, or windy it might be!

Date:

Astronomy

Jan. 05, 2013 Rise Set
Actual Time 10:07 AM AKST 4:12 PM AKST
Civil Twilight 9:10 AM AKST 5:09 PM AKST
Nautical Twilight 8:13 AM AKST 6:06 PM AKST
Astronomical Twilight 7:22 AM AKST 6:58 PM AKST
Moon 2:26 AM AKST (1/5) 12:00 PM AKST (1/5)
Length of Visible Light 7h 59m
Length of Day
6h 04m
Last Quarter, 42% of the Moon is Illuminated
Jan 5
Last Quarter
Jan 11
New
Jan 18
First Quarter
Jan 26
Full
Feb 3
Last Quarter

Hourly Weather History & Observations

Time (AKST) Temp. Windchill Dew Point Humidity Pressure Visibility Wind Dir Wind Speed Gust Speed Precip Events Conditions
12:16 AM 23.0 °F - 21.2 °F 93% 29.69 in 10.0 mi Calm Calm - N/A   Overcast
12:36 AM 24.8 °F - 21.2 °F 86% 29.69 in 10.0 mi Calm Calm - N/A   Overcast
12:56 AM 23.0 °F - 19.4 °F 86% 29.68 in 10.0 mi Calm Calm - N/A   Overcast
1:16 AM 24.8 °F - 23.0 °F 93% 29.68 in 10.0 mi Calm Calm - N/A   Overcast
1:36 AM 24.8 °F - 21.2 °F 86% 29.66 in 10.0 mi Calm Calm - N/A   Overcast
1:56 AM 24.8 °F - 21.2 °F 86% 29.65 in 10.0 mi Calm Calm - N/A   Overcast
2:16 AM 24.8 °F - 21.2 °F 86% 29.64 in 10.0 mi Calm Calm - N/A   Overcast
2:56 AM 24.8 °F - 21.2 °F 86% 29.62 in 10.0 mi Calm Calm - N/A   Overcast
3:36 AM 24.8 °F 20.5 °F 23.0 °F 93% 29.61 in 10.0 mi East 3.5 mph - N/A   Overcast
3:56 AM 26.6 °F 22.6 °F 24.8 °F 93% 29.59 in 10.0 mi East 3.5 mph - N/A   Overcast
4:16 AM 24.8 °F - 23.0 °F 93% 29.58 in 10.0 mi Calm Calm - N/A   Overcast
4:36 AM 26.6 °F - 24.8 °F 93% 29.57 in 10.0 mi Calm Calm - N/A   Overcast
4:56 AM 28.4 °F - 26.6 °F 93% 29.56 in 10.0 mi Calm Calm - N/A   Overcast
5:16 AM 28.4 °F 24.6 °F 26.6 °F 93% 29.55 in 10.0 mi NE 3.5 mph - N/A   Overcast
5:36 AM 28.4 °F 23.3 °F 26.6 °F 93% 29.54 in 10.0 mi NE 4.6 mph - N/A   Overcast
5:56 AM 30.2 °F 21.9 °F 28.4 °F 93% 29.52 in 10.0 mi NE 9.2 mph - N/A   Overcast
6:16 AM 30.2 °F 22.6 °F 26.6 °F 86% 29.52 in 10.0 mi NE 8.1 mph - N/A   Overcast
6:56 AM 28.4 °F 22.2 °F 24.8 °F 86% 29.50 in 10.0 mi ENE 5.8 mph - N/A   Overcast
7:16 AM 28.4 °F 22.2 °F 24.8 °F 86% 29.49 in 10.0 mi ENE 5.8 mph - N/A   Overcast
7:56 AM 28.4 °F 21.2 °F 23.0 °F 80% 29.46 in 10.0 mi ENE 6.9 mph - N/A   Mostly Cloudy
8:16 AM 28.4 °F 23.3 °F 24.8 °F 86% 29.45 in 10.0 mi East 4.6 mph - N/A   Overcast
8:36 AM 28.4 °F 22.2 °F 23.0 °F 80% 29.44 in 10.0 mi East 5.8 mph - N/A   Mostly Cloudy
8:56 AM 28.4 °F 23.3 °F 24.8 °F 86% 29.43 in 10.0 mi ENE 4.6 mph - N/A   Overcast
9:16 AM 28.4 °F 23.3 °F 24.8 °F 86% 29.42 in 10.0 mi ENE 4.6 mph - N/A   Overcast
9:36 AM 28.4 °F - 23.0 °F 80% 29.41 in 10.0 mi Calm Calm - N/A   Overcast
9:56 AM 30.2 °F 25.4 °F 24.8 °F 80% 29.40 in 10.0 mi ENE 4.6 mph - N/A   Overcast
10:16 AM 30.2 °F 23.4 °F 24.8 °F 80% 29.40 in 10.0 mi ENE 6.9 mph - N/A   Overcast
10:36 AM 30.2 °F 22.6 °F 24.8 °F 80% 29.39 in 10.0 mi NE 8.1 mph - N/A   Overcast
10:56 AM 30.2 °F 22.6 °F 24.8 °F 80% 29.38 in 10.0 mi NE 8.1 mph - N/A   Overcast
11:16 AM 30.2 °F 23.4 °F 23.0 °F 75% 29.38 in 10.0 mi NE 6.9 mph - N/A   Overcast
11:36 AM 30.2 °F 21.3 °F 24.8 °F 80% 29.37 in 10.0 mi ENE 10.4 mph - N/A   Overcast
11:56 AM 30.2 °F 21.9 °F 24.8 °F 80% 29.36 in 10.0 mi NE 9.2 mph - N/A   Overcast
12:16 PM 30.2 °F 21.3 °F 24.8 °F 80% 29.35 in 10.0 mi NE 10.4 mph 16.1 mph N/A   Overcast
12:36 PM 30.2 °F 21.9 °F 24.8 °F 80% 29.34 in 10.0 mi NE 9.2 mph - N/A   Overcast
12:56 PM 30.2 °F 20.8 °F 24.8 °F 80% 29.33 in 10.0 mi NE 11.5 mph 17.3 mph N/A   Overcast
1:16 PM 32.0 °F 23.6 °F 24.8 °F 75% 29.31 in 10.0 mi NE 10.4 mph - N/A   Overcast
1:56 PM 32.0 °F 23.0 °F 24.8 °F 75% 29.30 in 10.0 mi NE 11.5 mph 20.7 mph N/A   Overcast
2:16 PM 32.0 °F 25.6 °F 26.6 °F 80% 29.29 in 10.0 mi NE 6.9 mph 17.3 mph N/A   Overcast
2:36 PM 32.0 °F 23.0 °F 26.6 °F 80% 29.28 in 10.0 mi NE 11.5 mph 16.1 mph N/A   Overcast
2:56 PM 32.0 °F 24.2 °F 26.6 °F 80% 29.27 in 10.0 mi NE 9.2 mph - N/A   Overcast
3:16 PM 32.0 °F 22.5 °F 26.6 °F 80% 29.27 in 10.0 mi NE 12.7 mph - N/A   Overcast
3:36 PM 33.8 °F 25.8 °F 24.8 °F 70% 29.27 in 10.0 mi NE 10.4 mph - N/A   Overcast
3:56 PM 33.8 °F 26.4 °F 24.8 °F 70% 29.27 in 10.0 mi ENE 9.2 mph - N/A   Overcast
4:16 PM 33.8 °F 27.7 °F 24.8 °F 70% 29.26 in 10.0 mi ENE 6.9 mph - N/A   Overcast
4:36 PM 33.8 °F 27.7 °F 24.8 °F 70% 29.26 in 10.0 mi ENE 6.9 mph - N/A   Overcast
4:56 PM 33.8 °F 28.6 °F 24.8 °F 70% 29.26 in 10.0 mi NE 5.8 mph - N/A   Overcast
5:16 PM 33.8 °F 30.8 °F 24.8 °F 70% 29.26 in 10.0 mi North 3.5 mph - N/A   Scattered Clouds
5:36 PM 32.0 °F - 24.8 °F 75% 29.25 in 10.0 mi Calm Calm - N/A   Clear
5:56 PM 32.0 °F 27.5 °F 24.8 °F 75% 29.26 in 10.0 mi NNE 4.6 mph - N/A   Partly Cloudy
6:16 PM 32.0 °F 25.6 °F 24.8 °F 75% 29.25 in 10.0 mi NNE 6.9 mph - N/A   Clear
6:36 PM 32.0 °F 25.6 °F 24.8 °F 75% 29.26 in 10.0 mi NE 6.9 mph - N/A   Clear
6:56 PM 32.0 °F - 24.8 °F 75% 29.25 in 10.0 mi Calm Calm - N/A   Clear
7:16 PM 30.2 °F - 24.8 °F 80% 29.25 in 10.0 mi Calm Calm - N/A   Clear
7:36 PM 30.2 °F 25.4 °F 24.8 °F 80% 29.25 in 10.0 mi East 4.6 mph - N/A   Clear
7:56 PM 33.8 °F 27.7 °F 26.6 °F 75% 29.26 in 10.0 mi ESE 6.9 mph - N/A   Clear
8:16 PM 32.0 °F 24.2 °F 26.6 °F 80% 29.25 in 10.0 mi ESE 9.2 mph - N/A   Mostly Cloudy
8:36 PM 33.8 °F 27.7 °F 26.6 °F 75% 29.26 in 10.0 mi East 6.9 mph - N/A   Partly Cloudy
8:56 PM 32.0 °F - 26.6 °F 80% 29.27 in 10.0 mi Calm Calm - N/A   Partly Cloudy
9:16 PM 33.8 °F 29.6 °F 26.6 °F 75% 29.27 in 10.0 mi NE 4.6 mph - N/A   Partly Cloudy
9:36 PM 33.8 °F 27.7 °F 26.6 °F 75% 29.27 in 10.0 mi East 6.9 mph - N/A   Partly Cloudy
9:56 PM 33.8 °F 26.4 °F 26.6 °F 75% 29.27 in 10.0 mi East 9.2 mph - N/A   Partly Cloudy
10:16 PM 32.0 °F 26.4 °F 26.6 °F 80% 29.27 in 10.0 mi East 5.8 mph - N/A   Scattered Clouds
10:36 PM 32.0 °F 27.5 °F 26.6 °F 80% 29.28 in 10.0 mi East 4.6 mph - N/A   Scattered Clouds
10:56 PM 30.2 °F 25.4 °F 26.6 °F 86% 29.28 in 10.0 mi NE 4.6 mph - N/A   Mostly Cloudy
11:16 PM 30.2 °F 24.3 °F 26.6 °F 86% 29.29 in 10.0 mi East 5.8 mph - N/A   Overcast
11:36 PM 30.2 °F 21.9 °F 26.6 °F 86% 29.29 in 10.0 mi East 9.2 mph - N/A   Mostly Cloudy
11:56 PM 30.2 °F 25.4 °F 26.6 °F 86% 29.30 in 10.0 mi ESE 4.6 mph - N/A   Partly Cloudy